[[{"header":{"parameterUnit":"m.s-1","parameterCategory":1,"la1":30.2991,"la2":30.254,"lo1":-89.0895,"lo2":-89.0444,"dy":0.0017,"dx":0.0017,"nx":28,"ny":28,"refTime":"2025-11-07T09:00:00:Z","depth":0,"parameterNumber":2,"parameterNumberName":"U-component_of_WINDS"},"data":[0,0,0,0,0,0,0,0,0,0,0,0,0,0,0,0,0,0,0,0,0,0,0,0,0,0,0,0,0,0,0,0,0,0,0,0,0,0,0,0,0,0,0,0,0,0,0,0,0,0,0,0,0,0,0,0,0,0,-0.0467,-0.0466,0,-0.0359,-0.0358,-0.0356,-0.0301,-0.0301,-0.0301,-0.0301,-0.0187,-0.0184,-0.0181,0,0,0,0,0,0,0,0,0,0,0,0,0,-0.062,-0.0618,-0.0467,-0.0466,-0.0464,-0.0359,-0.0358,-0.0356,-0.0301,-0.0301,-0.0301,-0.0301,-0.0188,-0.0185,-0.0181,0,0,0,0,0,0,0,0,0,0,0,0,0,-0.0537,-0.0617,-0.0467,-0.0424,-0.0419,-0.0359,-0.0358,-0.0356,-0.0301,-0.0301,-0.0301,-0.0301,-0.0189,-0.0185,-0.0181,-0.0154,0,0,-0.0167,-0.0165,0,0,0,0,0,0,0,0,-0.0542,-0.0532,-0.0432,-0.0427,-0.0422,-0.0344,-0.037,-0.0288,-0.0301,-0.0346,-0.0301,-0.0301,-0.0239,-0.023,-0.021,-0.0149,-0.0144,-0.0166,-0.0164,-0.0162,-0.016,0,0,0,0,0,0,0,-0.0548,-0.0536,-0.0424,-0.043,-0.0424,-0.0409,-0.0397,-0.0354,-0.0294,-0.0342,-0.0338,-0.0326,-0.0236,-0.0215,-0.0207,-0.0142,-0.0167,-0.0163,-0.016,-0.0158,-0.005,-0.005,0,0,0,0,0,0,-0.0561,-0.0541,-0.0427,-0.0421,-0.0483,-0.0406,-0.0393,-0.0369,-0.0294,-0.0283,-0.0326,-0.0324,-0.0222,-0.0212,-0.0203,-0.0165,-0.0162,-0.0158,-0.0155,-0.005,-0.005,-0.005,0,0,0,0,0,0,-0.0565,-0.0552,-0.0432,-0.048,-0.0463,-0.0404,-0.0377,-0.0367,-0.0345,-0.0282,-0.0271,-0.0316,-0.0222,-0.0209,-0.0166,-0.016,-0.0156,-0.0151,-0.005,-0.005,-0.005,-0.009,0,0,0,0,0,0,-0.0569,-0.0553,-0.0544,-0.048,-0.0461,-0.0399,-0.0376,-0.0364,-0.0338,-0.0334,-0.027,-0.0259,-0.0221,-0.0173,-0.0162,-0.0154,-0.0148,-0.005,-0.005,-0.005,-0.0089,-0.0092,-0.0094,0,0,0,0,0,-0.0575,-0.0559,-0.0544,-0.053,-0.0448,-0.0398,-0.0387,-0.0345,-0.0338,-0.0327,-0.0286,-0.0261,-0.0163,-0.0169,-0.0156,-0.0147,-0.0051,-0.005,-0.005,-0.0088,-0.0091,-0.0094,0,0,0,0,0,0,-0.0623,-0.055,-0.0532,-0.0496,-0.0454,-0.0389,-0.0374,-0.035,-0.0308,-0.0306,-0.0254,-0.024,-0.0201,-0.017,-0.0178,-0.0116,-0.0104,-0.0101,-0.0138,-0.014,-0.0142,-0.015,-0.0144,0,0,0,0,0,-0.063,-0.0597,-0.0534,-0.0508,-0.0488,-0.0435,-0.0412,-0.0383,-0.0337,-0.0318,-0.0275,-0.023,-0.0188,-0.0163,-0.0121,-0.0084,-0.0068,-0.0071,-0.0074,-0.0076,-0.0073,-0.0049,-0.0049,-0.0048,-0.0048,-0.0048,0,0,-0.0643,-0.0599,-0.0581,-0.0517,-0.0481,-0.0446,-0.042,-0.0385,-0.0358,-0.0313,-0.0269,-0.0235,-0.0181,-0.0141,-0.0121,-0.0113,-0.007,-0.0075,-0.0077,-0.0074,-0.0049,-0.0049,-0.0049,-0.0048,-0.0048,-0.0048,0,0,-0.0649,-0.0613,-0.0586,-0.0551,-0.0497,-0.0461,-0.0455,-0.0393,-0.0369,-0.0325,-0.0289,-0.0256,-0.0187,-0.0149,-0.0121,-0.011,-0.0085,-0.0098,-0.0109,-0.0086,-0.0086,-0.0086,-0.008,-0.0079,-0.0096,-0.0096,-0.0096,0,-0.0672,-0.0619,-0.0575,-0.0542,-0.0513,-0.0471,-0.0442,-0.0409,-0.0344,-0.0325,-0.0317,-0.0228,-0.0189,-0.0138,-0.0135,-0.0115,-0.0104,-0.0105,-0.009,-0.0089,-0.0088,-0.0082,-0.008,-0.0098,-0.0098,-0.0098,-0.0098,0,-0.0649,-0.0613,-0.0597,-0.0536,-0.0506,-0.0475,-0.0424,-0.0399,-0.0372,-0.0337,-0.029,-0.0242,-0.0189,-0.0175,-0.0148,-0.0119,-0.0116,-0.01,-0.0087,-0.0091,-0.0084,-0.0082,-0.0101,-0.01,-0.01,-0.0099,0,0,-0.0683,-0.0597,-0.0592,-0.0563,-0.0499,-0.0469,-0.0435,-0.0384,-0.0362,-0.0318,-0.0287,-0.0229,-0.0213,-0.0181,-0.0149,-0.0129,-0.0121,-0.0115,-0.0113,-0.0117,-0.0084,-0.0096,-0.0094,-0.0104,-0.0104,-0.0103,-0.0088,0,-0.0679,-0.0617,-0.0576,-0.0529,-0.0494,-0.0452,-0.0422,-0.0379,-0.0344,-0.0308,-0.0269,-0.0228,-0.0211,-0.0191,-0.0169,-0.0127,-0.0114,-0.0128,-0.0073,-0.0071,-0.0087,-0.0091,-0.0103,-0.0091,-0.0085,-0.0085,-0.0084,0,-0.0666,-0.0624,-0.0574,-0.0512,-0.0496,-0.047,-0.0418,-0.0385,-0.0334,-0.031,-0.0274,-0.0241,-0.0201,-0.0192,-0.0135,-0.0145,-0.012,-0.0095,-0.0094,-0.0086,-0.0078,-0.0082,-0.0087,-0.0085,-0.008,-0.008,-0.0081,0,-0.0694,-0.0625,-0.0585,-0.0562,-0.0489,-0.0471,-0.044,-0.0389,-0.036,-0.0315,-0.0295,-0.0246,-0.0218,-0.018,-0.0134,-0.0132,-0.008,-0.0068,-0.0058,-0.0059,-0.0049,-0.005,-0.0048,-0.0034,-0.0034,-0.0034,-0.0034,0,-0.0693,-0.0664,-0.0597,-0.0573,-0.0538,-0.0489,-0.0456,-0.0421,-0.0375,-0.0342,-0.0302,-0.0272,-0.0214,-0.0175,-0.0139,-0.0096,-0.0084,-0.0062,-0.0052,-0.0065,-0.0068,-0.0047,-0.0046,-0.0034,-0.0034,-0.0034,-0.0034,0,-0.0719,-0.0673,-0.0627,-0.0562,-0.0544,-0.0521,-0.0464,-0.0438,-0.0401,-0.0359,-0.0346,-0.0288,-0.024,-0.0191,-0.0126,-0.0102,-0.0059,-0.0047,-0.0077,-0.0071,-0.0063,-0.0064,-0.0048,-0.0042,-0.0034,-0.0034,-0.0034,0,-0.0721,-0.0698,-0.063,-0.0605,-0.0575,-0.0535,-0.0506,-0.0456,-0.0427,-0.0366,-0.0346,-0.0296,-0.0253,-0.0178,-0.0129,-0.0079,-0.0064,-0.0061,-0.0056,-0.0069,-0.0062,-0.0063,-0.006,-0.0063,-0.0064,-0.0064,-0.0064,0,-0.073,-0.0707,-0.0667,-0.0618,-0.0583,-0.0542,-0.0499,-0.0481,-0.0422,-0.0391,-0.0342,-0.0309,-0.0242,-0.0192,-0.0136,-0.0101,-0.0072,-0.0066,-0.0061,-0.0073,-0.0091,-0.0079,-0.0081,-0.0067,-0.0067,-0.0066,-0.0066,-0.0066,-0.0742,-0.0719,-0.0667,-0.0622,-0.0584,-0.0545,-0.0516,-0.0475,-0.0434,-0.0377,-0.035,-0.03,-0.0247,-0.0168,-0.0134,-0.0094,-0.0086,-0.0078,-0.0076,-0.0075,-0.0077,-0.0098,-0.0083,-0.0083,-0.0083,-0.0083,-0.0083,0,-0.0747,-0.0711,-0.0671,-0.0612,-0.0576,-0.0553,-0.0503,-0.0475,-0.0432,-0.0385,-0.0344,-0.0286,-0.0237,-0.0183,-0.013,-0.0107,-0.0092,-0.0095,-0.0095,-0.0087,-0.0088,-0.0098,-0.0108,-0.0108,-0.0108,-0.0108,-0.0108,-0.0108,-0.0746,-0.0704,-0.0675,-0.0613,-0.0577,-0.0529,-0.0502,-0.0464,-0.0427,-0.0365,-0.0324,-0.0289,-0.0239,-0.0181,-0.0134,-0.0119,-0.0101,-0.0107,-0.0088,-0.009,-0.0088,-0.0086,-0.0094,-0.0103,-0.0103,-0.009,-0.009,-0.009]},{"header":{"parameterUnit":"m.s-1","parameterCategory":1,"la1":30.2991,"la2":30.254,"lo1":-89.0895,"lo2":-89.0444,"dy":0.0017,"dx":0.0017,"nx":28,"ny":28,"refTime":"2025-11-07T09:00:00:Z","depth":0,"parameterNumber":3,"parameterNumberName":"V-component_of_WINDS"},"data":[0,0,0,0,0,0,0,0,0,0,0,0,0,0,0,0,0,0,0,0,0,0,0,0,0,0,0,0,0,0,0,0,0,0,0,0,0,0,0,0,0,0,0,0,0,0,0,0,0,0,0,0,0,0,0,0,0,0,4.2759,4.276,0,4.2848,4.2849,4.285,4.2868,4.2868,4.2867,4.2867,4.2951,4.2954,4.2956,0,0,0,0,0,0,0,0,0,0,0,0,0,4.2605,4.2608,4.2759,4.276,4.2761,4.2848,4.2849,4.285,4.2869,4.2868,4.2867,4.2866,4.295,4.2953,4.2957,0,0,0,0,0,0,0,0,0,0,0,0,0,4.268,4.2608,4.2759,4.2781,4.2784,4.2847,4.2849,4.285,4.2869,4.2868,4.2867,4.2866,4.2949,4.2953,4.2957,4.3002,0,0,4.297,4.2972,0,0,0,0,0,0,0,0,4.2676,4.2686,4.2777,4.278,4.2783,4.2846,4.2825,4.2901,4.2869,4.2836,4.2867,4.2865,4.2916,4.2923,4.2942,4.3006,4.301,4.297,4.2973,4.2975,4.2976,0,0,0,0,0,0,0,4.2671,4.2682,4.2794,4.2778,4.2782,4.2786,4.2796,4.284,4.288,4.2839,4.2841,4.2851,4.2918,4.2938,4.2944,4.3011,4.297,4.2974,4.2977,4.2978,4.3123,4.3124,0,0,0,0,0,0,4.2662,4.2678,4.2791,4.2797,4.2726,4.279,4.2801,4.2827,4.288,4.2887,4.2852,4.2852,4.2931,4.2939,4.2947,4.3007,4.2975,4.2979,4.2981,4.3122,4.3123,4.3125,0,0,0,0,0,0,4.2659,4.2672,4.2788,4.2738,4.2753,4.2794,4.2823,4.2829,4.2849,4.289,4.2897,4.2865,4.293,4.2941,4.299,4.301,4.2981,4.2985,4.312,4.3122,4.3124,4.3126,0,0,0,0,0,0,4.2654,4.2671,4.2688,4.2738,4.2756,4.283,4.2824,4.2831,4.2857,4.2857,4.2904,4.291,4.293,4.2984,4.2994,4.3016,4.2988,4.3119,4.3121,4.3124,4.3124,4.3128,4.3131,0,0,0,0,0,4.2649,4.2682,4.2689,4.2703,4.2779,4.2831,4.2841,4.2865,4.2858,4.2877,4.2904,4.2909,4.3006,4.2989,4.3001,4.3023,4.3118,4.3121,4.3123,4.3123,4.3127,4.3131,0,0,0,0,0,0,4.263,4.2689,4.2697,4.2748,4.2785,4.2834,4.2857,4.2868,4.2905,4.2904,4.293,4.2941,4.299,4.3011,4.299,4.3073,4.3062,4.3067,4.3057,4.3061,4.3065,4.3059,4.2991,0,0,0,0,0,4.2633,4.2672,4.272,4.2761,4.278,4.2816,4.2839,4.2856,4.2893,4.2908,4.2939,4.2974,4.3014,4.3038,4.3076,4.3128,4.314,4.315,4.3153,4.3155,4.316,4.3194,4.32,4.3134,4.3134,4.3134,0,0,4.2636,4.2674,4.2696,4.2758,4.2789,4.2829,4.2828,4.2869,4.2899,4.2913,4.2964,4.2988,4.303,4.3082,4.3106,4.3101,4.3181,4.3159,4.3161,4.3164,4.3197,4.3203,4.3209,4.3136,4.3136,4.3136,0,0,4.2665,4.2696,4.2736,4.2768,4.2816,4.2841,4.2851,4.29,4.2918,4.2969,4.2983,4.3019,4.3084,4.3115,4.3139,4.3187,4.3194,4.3198,4.3215,4.3247,4.3253,4.3257,4.3278,4.3284,4.3203,4.3203,4.3203,0,4.2664,4.2726,4.2754,4.2797,4.2826,4.2845,4.2887,4.2915,4.2972,4.2991,4.2985,4.3073,4.3102,4.3164,4.3176,4.3194,4.3208,4.3193,4.325,4.3255,4.326,4.3279,4.3287,4.3203,4.3203,4.3203,4.3203,0,4.2724,4.2767,4.2793,4.2852,4.2883,4.2924,4.296,4.2988,4.3003,4.3029,4.3084,4.312,4.3168,4.3184,4.3196,4.3249,4.3246,4.3245,4.3234,4.3266,4.3285,4.3293,4.3204,4.3204,4.3203,4.3203,0,0,4.2738,4.2819,4.2828,4.2857,4.2914,4.2948,4.2992,4.3042,4.3068,4.3107,4.3146,4.3204,4.3206,4.3234,4.3251,4.3279,4.332,4.3275,4.3277,4.3285,4.3384,4.3386,4.3394,4.3325,4.3327,4.3328,4.3382,0,4.2776,4.2857,4.2888,4.2954,4.2996,4.3019,4.3057,4.3097,4.3123,4.3163,4.3191,4.3234,4.3231,4.3249,4.3278,4.3308,4.334,4.3305,4.3362,4.3364,4.3353,4.3404,4.3404,4.3453,4.3389,4.3391,4.3391,0,4.2829,4.2875,4.2947,4.3005,4.3024,4.3058,4.311,4.3147,4.3194,4.3211,4.3246,4.3263,4.3311,4.3298,4.3366,4.3341,4.3367,4.3386,4.3389,4.3396,4.338,4.3414,4.3469,4.3478,4.3403,4.3402,4.3401,0,4.2837,4.2916,4.2971,4.2995,4.3063,4.3087,4.3116,4.3162,4.3193,4.3238,4.3259,4.3307,4.3334,4.3372,4.3402,4.3389,4.3469,4.3457,4.3486,4.3485,4.3501,4.35,4.3563,4.3515,4.3515,4.3515,4.3514,0,4.2876,4.292,4.2977,4.301,4.3061,4.3096,4.3146,4.3176,4.3218,4.3258,4.3279,4.3317,4.3354,4.3396,4.342,4.3475,4.3486,4.3503,4.3509,4.3502,4.35,4.3519,4.3517,4.3517,4.3516,4.3516,4.3515,0,4.2892,4.2932,4.2994,4.3056,4.3072,4.3107,4.316,4.3194,4.3224,4.3276,4.329,4.3336,4.3388,4.3423,4.3487,4.3504,4.3565,4.3568,4.355,4.3553,4.3581,4.3579,4.366,4.3675,4.3615,4.3615,4.3615,0,4.2915,4.295,4.3018,4.3049,4.3079,4.3127,4.316,4.3197,4.3231,4.3291,4.3319,4.3373,4.3419,4.3501,4.354,4.3591,4.3598,4.3623,4.3605,4.3599,4.3602,4.36,4.3605,4.3626,4.3626,4.3626,4.3627,0,4.2952,4.2972,4.302,4.3077,4.3117,4.3163,4.3208,4.3232,4.3277,4.3314,4.337,4.3406,4.3477,4.3531,4.3588,4.3617,4.3631,4.3633,4.3643,4.3636,4.3626,4.3635,4.356,4.363,4.363,4.363,4.3629,4.3629,4.2973,4.3008,4.3064,4.3118,4.3158,4.3202,4.3239,4.3277,4.3325,4.3387,4.3406,4.3465,4.3516,4.3594,4.3625,4.3672,4.3669,4.3682,4.3686,4.369,4.3692,4.3618,4.3682,4.3682,4.3682,4.3682,4.3682,0,4.3014,4.3052,4.3103,4.3169,4.3213,4.3226,4.3279,4.3315,4.3368,4.3415,4.3462,4.3529,4.3584,4.363,4.3687,4.3716,4.3724,4.373,4.3729,4.3736,4.3689,4.3676,4.3723,4.3723,4.3723,4.3723,4.3723,4.3723,4.304,4.3101,4.3129,4.3211,4.3249,4.331,4.334,4.3382,4.3421,4.3496,4.3543,4.3574,4.3622,4.3684,4.3736,4.3748,4.3769,4.3775,4.3788,4.3743,4.3739,4.3734,4.3723,4.3778,4.3778,4.3832,4.3832,4.3833]}]]